Weather History for San Angelo, TX

Change the Weather History Date:

Thursday, May 2, 2013

  Actual Average Record
Temperature  
Mean Temperature 55 °F 71 °F  
Max Temperature 67 °F 84 °F 99 °F (1998)
Min Temperature 43 °F 57 °F 35 °F (1967)
Degree Days  
Heating Degree Days 10 1  
Month to date heating degree days 10 2  
Since 1 July heating degree days 1897 2308  
Cooling Degree Days 0 7  
Month to date cooling degree days 17 13  
Year to date cooling degree days 266 169  
Moisture  
Dew Point 37 °F    
Average Humidity 63    
Maximum Humidity 82    
Minimum Humidity 43    
Precipitation  
Precipitation T in 0.07 in 1.54 in (1922)
Month to date precipitation 0.01 0.14  
Year to date precipitation 2.82 5.34  
Sea Level Pressure  
Sea Level Pressure 30.31 in    
Wind  
Wind Speed 21 mph (North)    
Max Wind Speed 31 mph    
Max Gust Speed 38 mph    
Visibility 10 miles    
Events      
T = Trace of Precipitation, MM = Missing Value Source: NWS Daily Summary

Daily Weather History Graph

Daily Weather History Graph

Search for Another Location

Airport:

Trip Planner

Search our weather history database for the weather conditions in past years. The results will help you decide how hot, cold, wet, or windy it might be!

Date:

Astronomy

May. 02, 2013 Rise Set
Actual Time 6:55 AM CDT 8:22 PM CDT
Civil Twilight 6:30 AM CDT 8:48 PM CDT
Nautical Twilight 5:59 AM CDT 9:19 PM CDT
Astronomical Twilight 5:27 AM CDT 9:51 PM CDT
Moon 2:16 AM CDT (5/2) 1:40 PM CDT (5/2)
Length of Visible Light 14h 18m
Length of Day
13h 26m
Waning Gibbous, 47% of the Moon is Illuminated
May 2
Waning Gibbous
May 9
New
May 17
First Quarter
May 24
Full
May 31
Last Quarter

Hourly Weather History & Observations

Time (CDT) Temp. Windchill Dew Point Humidity Pressure Visibility Wind Dir Wind Speed Gust Speed Precip Events Conditions
12:51 AM 66.9 °F - 57.9 °F 73% 29.96 in 10.0 mi NNE 17.3 mph 21.9 mph N/A   Clear
1:49 AM 62.6 °F - 46.4 °F 55% 30.08 in 10.0 mi NNE 23.0 mph - N/A   Mostly Cloudy
1:51 AM 61.0 °F - 46.0 °F 58% 30.02 in 10.0 mi NNE 23.0 mph 29.9 mph N/A   Mostly Cloudy
2:51 AM 55.9 °F - 43.0 °F 62% 30.06 in 10.0 mi North 23.0 mph 31.1 mph N/A   Overcast
3:51 AM 50.0 °F - 41.0 °F 71% 30.11 in 10.0 mi North 23.0 mph 32.2 mph N/A   Overcast
4:51 AM 48.0 °F - 39.0 °F 71% 30.16 in 10.0 mi North 20.7 mph 27.6 mph N/A   Overcast
5:51 AM 46.0 °F 39.0 °F 37.0 °F 71% 30.21 in 10.0 mi NNW 17.3 mph 27.6 mph N/A   Overcast
6:51 AM 44.1 °F 35.4 °F 37.0 °F 76% 30.24 in 10.0 mi NNW 21.9 mph - N/A   Overcast
7:51 AM 43.0 °F 33.3 °F 37.0 °F 80% 30.30 in 7.0 mi North 25.3 mph 31.1 mph 0.00 in   Overcast
8:51 AM 44.1 °F 36.8 °F 36.0 °F 73% 30.32 in 10.0 mi NNW 16.1 mph 24.2 mph 0.00 in   Overcast
9:51 AM 45.0 °F 37.1 °F 36.0 °F 71% 30.34 in 10.0 mi North 19.6 mph 28.8 mph N/A   Overcast
10:51 AM 45.0 °F 36.0 °F 35.1 °F 68% 30.38 in 10.0 mi North 25.3 mph 31.1 mph N/A   Overcast
11:51 AM 46.0 °F 38.0 °F 36.0 °F 68% 30.41 in 10.0 mi NNW 21.9 mph 33.4 mph N/A   Overcast
12:51 PM 46.9 °F - 36.0 °F 66% 30.42 in 10.0 mi North 26.5 mph 32.2 mph N/A   Overcast
1:51 PM 46.9 °F - 35.1 °F 63% 30.43 in 10.0 mi North 27.6 mph 34.5 mph N/A   Overcast
2:51 PM 48.0 °F - 34.0 °F 58% 30.44 in 10.0 mi North 23.0 mph 33.4 mph N/A   Overcast
3:47 PM 48.2 °F - 33.8 °F 58% 30.43 in 10.0 mi North 21.9 mph 27.6 mph N/A   Overcast
3:51 PM 50.0 °F - 34.0 °F 54% 30.43 in 10.0 mi North 21.9 mph 28.8 mph N/A   Overcast
4:51 PM 53.1 °F - 33.1 °F 47% 30.41 in 10.0 mi North 23.0 mph 32.2 mph N/A   Mostly Cloudy
5:51 PM 55.9 °F - 33.1 °F 42% 30.38 in 10.0 mi North 27.6 mph 32.2 mph N/A   Scattered Clouds
6:51 PM 54.0 °F - 32.0 °F 43% 30.40 in 10.0 mi North 23.0 mph 33.4 mph N/A   Partly Cloudy
7:51 PM 52.0 °F - 30.9 °F 45% 30.41 in 10.0 mi North 24.2 mph 32.2 mph N/A   Clear
8:51 PM 50.0 °F - 30.9 °F 48% 30.43 in 10.0 mi North 19.6 mph - N/A   Clear
9:51 PM 48.9 °F - 30.9 °F 50% 30.46 in 10.0 mi North 13.8 mph - N/A   Clear
10:51 PM 46.9 °F - 30.9 °F 54% 30.47 in 10.0 mi NNW 8.1 mph - N/A   Clear
11:51 PM 45.0 °F 40.1 °F 30.0 °F 56% 30.46 in 10.0 mi NNW 9.2 mph - N/A   Clear